| time (UTC) | temp C | wind direction | speed KPH | gust KPH | rain 1hr cm | rain 24hr cm | rain mn cm | humidity % | barometer mb |
| 20260902230517 | 30 | 269 | 0.0 | 1.6 | 0.00 | 0.13 | 0.03 | 72 | 1010.6 |
| 20260902230016 | 30 | 0.0 | 1.6 | 0.00 | 0.13 | 0.03 | 71 | 1010.6 | |
| 20260902225536 | 30 | 269 | 0.0 | 3.2 | 0.00 | 0.13 | 0.03 | 70 | 1010.6 |
| 20260902225016 | 30 | 269 | 0.0 | 3.2 | 0.00 | 0.13 | 0.03 | 70 | 1010.6 |
| 20260902224517 | 30 | 268 | 0.0 | 4.8 | 0.00 | 0.13 | 0.03 | 67 | 1010.6 |
| 20260902224017 | 30 | 263 | 1.6 | 4.8 | 0.00 | 0.13 | 0.03 | 68 | 1010.7 |
| 20260902223516 | 30 | 258 | 1.6 | 6.4 | 0.00 | 0.13 | 0.03 | 67 | 1010.7 |
| 20260902223016 | 30 | 263 | 1.6 | 6.4 | 0.00 | 0.13 | 0.03 | 66 | 1010.8 |
| 20260902222537 | 30 | 255 | 3.2 | 6.4 | 0.00 | 0.13 | 0.03 | 66 | 1010.8 |
| 20260902222016 | 31 | 249 | 3.2 | 6.4 | 0.00 | 0.13 | 0.03 | 65 | 1010.8 |
| 20260902221516 | 31 | 245 | 3.2 | 8.0 | 0.00 | 0.13 | 0.03 | 65 | 1010.7 |
| 20260902221016 | 31 | 245 | 3.2 | 8.0 | 0.00 | 0.13 | 0.03 | 64 | 1010.7 |
| 20260902220516 | 31 | 239 | 4.8 | 14.5 | 0.00 | 0.13 | 0.03 | 63 | 1010.7 |
| 20260902220017 | 31 | 248 | 6.4 | 16.1 | 0.00 | 0.13 | 0.03 | 63 | 1010.7 |
| 20260902215516 | 31 | 246 | 8.0 | 16.1 | 0.00 | 0.13 | 0.03 | 62 | 1010.7 |
| 20260902215016 | 31 | 236 | 4.8 | 19.3 | 0.00 | 0.13 | 0.03 | 62 | 1010.7 |
| 20260902214516 | 31 | 243 | 11.3 | 20.9 | 0.00 | 0.13 | 0.03 | 61 | 1010.7 |
| 20260902214016 | 31 | 227 | 11.3 | 20.9 | 0.00 | 0.13 | 0.03 | 59 | 1010.7 |
| 20260902213516 | 32 | 229 | 8.0 | 25.7 | 0.00 | 0.13 | 0.03 | 59 | 1010.6 |
| 20260902213016 | 32 | 229 | 12.9 | 25.7 | 0.00 | 0.13 | 0.03 | 58 | 1010.6 |
| 20260902212516 | 32 | 223 | 9.7 | 20.9 | 0.00 | 0.13 | 0.03 | 60 | 1010.7 |
| 20260902212017 | 32 | 225 | 11.3 | 20.9 | 0.00 | 0.15 | 0.03 | 59 | 1010.7 |
| 20260902211517 | 32 | 223 | 8.0 | 17.7 | 0.00 | 0.15 | 0.03 | 60 | 1010.7 |
| 20260902211016 | 32 | 221 | 6.4 | 17.7 | 0.00 | 0.15 | 0.03 | 60 | 1010.6 |
| 20260902210516 | 32 | 244 | 9.7 | 17.7 | 0.00 | 0.15 | 0.03 | 57 | 1010.7 |
| 20260902210016 | 32 | 222 | 9.7 | 25.7 | 0.00 | 0.15 | 0.03 | 59 | 1010.8 |
| 20260902205517 | 32 | 234 | 14.5 | 25.7 | 0.00 | 0.15 | 0.03 | 57 | 1010.8 |
| 20260902205016 | 32 | 231 | 14.5 | 30.6 | 0.00 | 0.15 | 0.03 | 55 | 1010.8 |
| 20260902204516 | 32 | 228 | 16.1 | 32.2 | 0.00 | 0.15 | 0.03 | 56 | 1011.0 |
| 20260902204016 | 32 | 234 | 14.5 | 32.2 | 0.00 | 0.15 | 0.03 | 58 | 1010.9 |
| 20260902203516 | 32 | 218 | 9.7 | 19.3 | 0.00 | 0.15 | 0.03 | 59 | 1010.8 |
| 20260902203016 | 32 | 208 | 11.3 | 19.3 | 0.00 | 0.15 | 0.03 | 58 | 1010.9 |
| 20260902202516 | 32 | 211 | 9.7 | 19.3 | 0.00 | 0.15 | 0.03 | 58 | 1010.9 |
| 20260902202016 | 32 | 214 | 11.3 | 27.4 | 0.00 | 0.15 | 0.03 | 58 | 1011.0 |
| 20260902201515 | 32 | 232 | 11.3 | 27.4 | 0.00 | 0.15 | 0.03 | 59 | 1011.1 |
| 20260902201016 | 32 | 233 | 8.0 | 19.3 | 0.00 | 0.15 | 0.03 | 58 | 1011.2 |
| 20260902200515 | 32 | 219 | 9.7 | 32.2 | 0.00 | 0.15 | 0.03 | 57 | 1011.2 |
| 20260902200017 | 32 | 229 | 12.9 | 32.2 | 0.00 | 0.15 | 0.03 | 55 | 1011.2 |
| 20260902195516 | 32 | 224 | 8.0 | 19.3 | 0.00 | 0.15 | 0.03 | 57 | 1011.3 |
| 20260902195035 | 32 | 215 | 11.3 | 24.1 | 0.00 | 0.15 | 0.03 | 59 | 1011.3 |
| 20260902194515 | 32 | 225 | 11.3 | 24.1 | 0.00 | 0.15 | 0.03 | 58 | 1011.4 |
| 20260902194017 | 32 | 209 | 9.7 | 19.3 | 0.00 | 0.15 | 0.03 | 57 | 1011.4 |
| 20260902193516 | 32 | 213 | 9.7 | 33.8 | 0.00 | 0.15 | 0.03 | 59 | 1011.5 |
| 20260902193017 | 32 | 187 | 14.5 | 33.8 | 0.00 | 0.15 | 0.03 | 57 | 1011.4 |
| 20260902192515 | 32 | 186 | 11.3 | 27.4 | 0.00 | 0.15 | 0.03 | 58 | 1011.6 |
| 20260902192015 | 32 | 215 | 11.3 | 20.9 | 0.00 | 0.15 | 0.03 | 59 | 1011.7 |
| 20260902191515 | 32 | 198 | 11.3 | 20.9 | 0.00 | 0.15 | 0.03 | 58 | 1011.8 |
| 20260902191016 | 32 | 195 | 11.3 | 20.9 | 0.00 | 0.15 | 0.03 | 59 | 1011.9 |
| 20260902190516 | 32 | 201 | 9.7 | 19.3 | 0.00 | 0.15 | 0.03 | 61 | 1012.1 |
| 20260902190035 | 32 | 213 | 8.0 | 20.9 | 0.00 | 0.15 | 0.03 | 61 | 1012.1 |
| 20260902185515 | 31 | 224 | 11.3 | 20.9 | 0.00 | 0.15 | 0.03 | 61 | 1012.3 |
| 20260902185016 | 31 | 212 | 11.3 | 22.5 | 0.00 | 0.15 | 0.03 | 61 | 1012.3 |
| 20260902184515 | 31 | 191 | 9.7 | 22.5 | 0.00 | 0.15 | 0.03 | 62 | 1012.3 |
| 20260902184016 | 31 | 245 | 9.7 | 19.3 | 0.00 | 0.15 | 0.03 | 60 | 1012.4 |
| 20260902183516 | 31 | 217 | 12.9 | 22.5 | 0.00 | 0.15 | 0.03 | 61 | 1012.5 |
| 20260902183035 | 31 | 231 | 11.3 | 24.1 | 0.00 | 0.15 | 0.03 | 61 | 1012.5 |
| 20260902182515 | 31 | 230 | 14.5 | 24.1 | 0.00 | 0.15 | 0.03 | 61 | 1012.6 |
| 20260902182015 | 31 | 233 | 9.7 | 25.7 | 0.00 | 0.15 | 0.03 | 64 | 1012.6 |
| 20260902181515 | 31 | 232 | 11.3 | 25.7 | 0.00 | 0.15 | 0.03 | 63 | 1012.7 |
| 20260902181036 | 31 | 248 | 9.7 | 19.3 | 0.00 | 0.15 | 0.03 | 61 | 1012.6 |
| 20260902180515 | 31 | 240 | 12.9 | 19.3 | 0.00 | 0.15 | 0.03 | 62 | 1012.7 |
| 20260902180036 | 31 | 237 | 8.0 | 16.1 | 0.00 | 0.15 | 0.03 | 66 | 1012.7 |
| 20260902175516 | 30 | 267 | 6.4 | 20.9 | 0.00 | 0.15 | 0.03 | 64 | 1012.7 |
| 20260902175015 | 30 | 248 | 14.5 | 20.9 | 0.00 | 0.15 | 0.03 | 64 | 1012.8 |
| 20260902174515 | 30 | 230 | 6.4 | 17.7 | 0.00 | 0.15 | 0.03 | 66 | 1012.9 |
| 20260902174035 | 30 | 219 | 11.3 | 17.7 | 0.00 | 0.15 | 0.03 | 65 | 1012.9 |
| 20260902173515 | 30 | 238 | 4.8 | 14.5 | 0.00 | 0.15 | 0.03 | 68 | 1012.9 |
| 20260902173036 | 30 | 263 | 8.0 | 16.1 | 0.00 | 0.15 | 0.03 | 67 | 1012.9 |
| 20260902172515 | 30 | 239 | 8.0 | 17.7 | 0.00 | 0.15 | 0.03 | 67 | 1013.0 |
| 20260902172015 | 30 | 208 | 9.7 | 17.7 | 0.00 | 0.15 | 0.03 | 66 | 1013.0 |
| 20260902171516 | 30 | 199 | 6.4 | 16.1 | 0.00 | 0.15 | 0.03 | 69 | 1013.0 |
| 20260902171015 | 30 | 202 | 4.8 | 14.5 | 0.00 | 0.15 | 0.03 | 70 | 1013.1 |
| 20260902170515 | 29 | 199 | 8.0 | 14.5 | 0.00 | 0.15 | 0.03 | 71 | 1013.1 |
| 20260902170015 | 29 | 205 | 6.4 | 14.5 | 0.00 | 0.15 | 0.03 | 72 | 1013.0 |
| 20260902165516 | 29 | 226 | 8.0 | 12.9 | 0.00 | 0.15 | 0.03 | 72 | 1013.0 |
| 20260902165015 | 29 | 208 | 4.8 | 16.1 | 0.00 | 0.15 | 0.03 | 71 | 1013.0 |
| 20260902164515 | 29 | 181 | 9.7 | 16.1 | 0.00 | 0.15 | 0.03 | 71 | 1013.1 |
| 20260902164015 | 29 | 203 | 8.0 | 16.1 | 0.00 | 0.15 | 0.03 | 73 | 1013.1 |
| 20260902163515 | 28 | 225 | 6.4 | 12.9 | 0.00 | 0.15 | 0.03 | 73 | 1013.0 |
| 20260902163015 | 28 | 213 | 6.4 | 19.3 | 0.00 | 0.15 | 0.03 | 72 | 1013.0 |
| 20260902162515 | 28 | 177 | 8.0 | 19.3 | 0.00 | 0.15 | 0.03 | 73 | 1012.9 |
| 20260902162015 | 28 | 196 | 8.0 | 16.1 | 0.00 | 0.15 | 0.03 | 74 | 1012.9 |
| 20260902161516 | 28 | 188 | 8.0 | 16.1 | 0.00 | 0.15 | 0.03 | 73 | 1013.0 |
| 20260902161015 | 28 | 198 | 8.0 | 12.9 | 0.00 | 0.15 | 0.03 | 74 | 1013.0 |
| 20260902160535 | 28 | 222 | 4.8 | 11.3 | 0.00 | 0.15 | 0.03 | 76 | 1013.0 |
| 20260902160015 | 28 | 224 | 6.4 | 11.3 | 0.00 | 0.15 | 0.03 | 76 | 1013.1 |
| 20260902155516 | 28 | 223 | 4.8 | 11.3 | 0.00 | 0.15 | 0.03 | 76 | 1013.1 |
| 20260902155015 | 28 | 206 | 3.2 | 11.3 | 0.00 | 0.15 | 0.03 | 76 | 1013.1 |
| 20260902154515 | 27 | 244 | 6.4 | 11.3 | 0.00 | 0.15 | 0.03 | 76 | 1013.2 |
| 20260902154036 | 27 | 225 | 3.2 | 14.5 | 0.00 | 0.15 | 0.03 | 79 | 1013.2 |
| 20260902153516 | 27 | 228 | 6.4 | 14.5 | 0.00 | 0.15 | 0.03 | 77 | 1013.2 |
| 20260902153015 | 27 | 244 | 6.4 | 12.9 | 0.00 | 0.15 | 0.03 | 79 | 1013.2 |
| 20260902152515 | 27 | 251 | 4.8 | 12.9 | 0.00 | 0.15 | 0.03 | 78 | 1013.1 |
| 20260902152015 | 27 | 246 | 6.4 | 12.9 | 0.00 | 0.15 | 0.03 | 79 | 1013.3 |
| 20260902151516 | 27 | 228 | 6.4 | 14.5 | 0.00 | 0.15 | 0.03 | 79 | 1013.2 |
| 20260902151015 | 26 | 251 | 6.4 | 14.5 | 0.00 | 0.15 | 0.03 | 80 | 1013.2 |
| 20260902150515 | 26 | 236 | 8.0 | 14.5 | 0.00 | 0.15 | 0.03 | 81 | 1013.3 |
| 20260902150015 | 26 | 247 | 8.0 | 17.7 | 0.00 | 0.15 | 0.03 | 82 | 1013.3 |
| 20260902145515 | 26 | 262 | 8.0 | 20.9 | 0.00 | 0.15 | 0.03 | 80 | 1013.2 |
| 20260902145015 | 26 | 281 | 9.7 | 20.9 | 0.00 | 0.15 | 0.03 | 81 | 1013.2 |
| 20260902144516 | 26 | 270 | 8.0 | 14.5 | 0.00 | 0.15 | 0.03 | 82 | 1013.2 |
| 20260902144015 | 26 | 264 | 6.4 | 17.7 | 0.00 | 0.15 | 0.03 | 83 | 1013.2 |
| 20260902143515 | 26 | 272 | 8.0 | 19.3 | 0.00 | 0.15 | 0.03 | 83 | 1013.2 |
| 20260902143015 | 25 | 253 | 11.3 | 19.3 | 0.00 | 0.15 | 0.03 | 85 | 1013.3 |
| 20260902142535 | 25 | 254 | 9.7 | 17.7 | 0.00 | 0.15 | 0.03 | 86 | 1013.3 |
| 20260902142015 | 25 | 252 | 8.0 | 16.1 | 0.00 | 0.15 | 0.03 | 88 | 1013.3 |
| 20260902141515 | 25 | 270 | 9.7 | 19.3 | 0.00 | 0.15 | 0.03 | 91 | 1013.5 |
| 20260902141017 | 24 | 269 | 9.7 | 19.3 | 0.00 | 0.15 | 0.03 | 93 | 1013.5 |
| 20260902140517 | 24 | 265 | 3.2 | 11.3 | 0.00 | 0.15 | 0.03 | 94 | 1013.4 |
| 20260902140017 | 24 | 192 | 1.6 | 8.0 | 0.00 | 0.15 | 0.03 | 95 | 1012.8 |
| 20260902135517 | 24 | 192 | 1.6 | 8.0 | 0.00 | 0.15 | 0.03 | 96 | 1012.8 |
| 20260902135018 | 23 | 204 | 3.2 | 8.0 | 0.00 | 0.15 | 0.03 | 96 | 1012.9 |
| 20260902134515 | 23 | 197 | 1.6 | 6.4 | 0.00 | 0.15 | 0.03 | 96 | 1012.9 |
| 20260902134018 | 23 | 207 | 1.6 | 6.4 | 0.00 | 0.15 | 0.03 | 96 | 1012.8 |
| 20260902133517 | 23 | 189 | 3.2 | 6.4 | 0.00 | 0.15 | 0.03 | 96 | 1012.8 |
| 20260902133017 | 23 | 197 | 3.2 | 4.8 | 0.00 | 0.15 | 0.03 | 96 | 1012.9 |
| 20260902132517 | 23 | 157 | 0.0 | 4.8 | 0.00 | 0.15 | 0.03 | 97 | 1012.9 |
| 20260902132017 | 23 | 155 | 1.6 | 4.8 | 0.00 | 0.15 | 0.03 | 97 | 1012.9 |
| 20260902131517 | 23 | 173 | 0.0 | 3.2 | 0.00 | 0.15 | 0.03 | 97 | 1012.9 |
| 20260902131017 | 22 | 196 | 0.0 | 4.8 | 0.00 | 0.15 | 0.03 | 96 | 1013.0 |
| 20260902130517 | 22 | 181 | 1.6 | 4.8 | 0.00 | 0.15 | 0.03 | 97 | 1013.1 |
| 20260902130038 | 22 | 209 | 0.0 | 3.2 | 0.00 | 0.15 | 0.03 | 96 | 1013.1 |
| 20260902125517 | 22 | 183 | 0.0 | 3.2 | 0.00 | 0.15 | 0.03 | 97 | 1013.1 |
| 20260902125018 | 22 | 127 | 0.0 | 6.4 | 0.00 | 0.15 | 0.03 | 96 | 1013.1 |
| 20260902124517 | 21 | 191 | 1.6 | 6.4 | 0.03 | 0.15 | 0.03 | 97 | 1013.3 |
| 20260902124017 | 21 | 55 | 1.6 | 6.4 | 0.03 | 0.15 | 0.03 | 96 | 1013.3 |
| 20260902123517 | 21 | 48 | 0.0 | 3.2 | 0.03 | 0.15 | 0.03 | 96 | 1013.2 |
| 20260902123017 | 21 | 13 | 0.0 | 3.2 | 0.03 | 0.15 | 0.03 | 96 | 1013.4 |
| 20260902122518 | 21 | 13 | 0.0 | 3.2 | 0.03 | 0.15 | 0.03 | 96 | 1013.6 |
| 20260902122017 | 21 | 13 | 1.6 | 3.2 | 0.03 | 0.15 | 0.03 | 96 | 1013.5 |
| 20260902121517 | 21 | 13 | 0.0 | 4.8 | 0.03 | 0.15 | 0.03 | 96 | 1013.6 |
| 20260902121037 | 21 | 25 | 1.6 | 4.8 | 0.03 | 0.15 | 0.03 | 96 | 1013.5 |
| 20260902120517 | 21 | 0.0 | 0.0 | 0.03 | 0.15 | 0.03 | 96 | 1013.4 | |
| 20260902120057 | 21 | 0.0 | 1.6 | 0.03 | 0.15 | 0.03 | 96 | 1013.3 | |
| 20260902115518 | 20 | 37 | 0.0 | 3.2 | 0.03 | 0.15 | 0.03 | 96 | 1013.3 |
| 20260902115017 | 20 | 40 | 1.6 | 3.2 | 0.03 | 0.15 | 0.03 | 96 | 1013.3 |
| 20260902114517 | 20 | 102 | 1.6 | 3.2 | 0.00 | 0.13 | 0.00 | 96 | 1013.2 |
| 20260902114038 | 20 | 113 | 0.0 | 3.2 | 0.00 | 0.13 | 0.00 | 96 | 1013.0 |
| 20260902113517 | 20 | 113 | 0.0 | 3.2 | 0.00 | 0.13 | 0.00 | 96 | 1013.0 |
| 20260902113017 | 20 | 114 | 0.0 | 3.2 | 0.00 | 0.13 | 0.00 | 96 | 1013.1 |
| 20260902112518 | 20 | 113 | 1.6 | 3.2 | 0.00 | 0.13 | 0.00 | 96 | 1013.2 |
| 20260902112037 | 20 | 62 | 0.0 | 4.8 | 0.00 | 0.13 | 0.00 | 96 | 1013.2 |
| 20260902111517 | 20 | 19 | 1.6 | 4.8 | 0.00 | 0.13 | 0.00 | 96 | 1013.2 |
| 20260902111022 | 20 | 5 | 0.0 | 4.8 | 0.00 | 0.13 | 0.00 | 96 | 1013.2 |
| 20260902110516 | 20 | 14 | 3.2 | 4.8 | 0.00 | 0.13 | 0.00 | 96 | 1013.1 |
| 20260902110037 | 20 | 117 | 0.0 | 3.2 | 0.00 | 0.13 | 0.00 | 96 | 1013.0 |
| 20260902105516 | 20 | 120 | 0.0 | 3.2 | 0.00 | 0.13 | 0.00 | 96 | 1012.9 |
| 20260902105017 | 20 | 131 | 0.0 | 3.2 | 0.00 | 0.13 | 0.00 | 96 | 1012.9 |
| 20260902104557 | 20 | 130 | 1.6 | 3.2 | 0.00 | 0.13 | 0.00 | 96 | 1012.9 |
| 20260902104017 | 20 | 129 | 1.6 | 3.2 | 0.00 | 0.13 | 0.00 | 96 | 1012.9 |
| 20260902103517 | 20 | 129 | 0.0 | 3.2 | 0.00 | 0.13 | 0.00 | 96 | 1013.0 |
| 20260902103018 | 20 | 129 | 0.0 | 3.2 | 0.00 | 0.13 | 0.00 | 96 | 1013.0 |
| 20260902102517 | 20 | 126 | 0.0 | 3.2 | 0.00 | 0.13 | 0.00 | 95 | 1012.9 |
| 20260902102037 | 21 | 120 | 0.0 | 3.2 | 0.00 | 0.13 | 0.00 | 96 | 1013.1 |
| 20260902101537 | 21 | 123 | 0.0 | 3.2 | 0.00 | 0.13 | 0.00 | 96 | 1013.1 |
| 20260902101017 | 21 | 138 | 0.0 | 3.2 | 0.00 | 0.13 | 0.00 | 96 | 1013.0 |
| 20260902100516 | 21 | 113 | 0.0 | 6.4 | 0.00 | 0.13 | 0.00 | 96 | 1013.0 |
| 20260902100017 | 21 | 9 | 3.2 | 6.4 | 0.00 | 0.13 | 0.00 | 96 | 1013.1 |
| 20260902095516 | 21 | 9 | 0.0 | 1.6 | 0.00 | 0.13 | 0.00 | 95 | 1013.1 |
| 20260902095016 | 21 | 0.0 | 0.0 | 0.00 | 0.13 | 0.00 | 95 | 1013.0 | |
| 20260902094517 | 21 | 0.0 | 0.0 | 0.00 | 0.13 | 0.00 | 95 | 1013.0 | |
| 20260902094016 | 21 | 0.0 | 0.0 | 0.00 | 0.13 | 0.00 | 95 | 1013.0 | |
| 20260902093516 | 21 | 0.0 | 0.0 | 0.00 | 0.13 | 0.00 | 96 | 1013.0 | |
| 20260902093036 | 21 | 0.0 | 0.0 | 0.00 | 0.13 | 0.00 | 95 | 1012.9 | |
| 20260902092517 | 21 | 0.0 | 0.0 | 0.00 | 0.13 | 0.00 | 95 | 1012.9 | |
| 20260902092038 | 21 | 0.0 | 0.0 | 0.00 | 0.13 | 0.00 | 96 | 1013.0 | |
| 20260902091516 | 21 | 0.0 | 0.0 | 0.00 | 0.13 | 0.00 | 96 | 1013.0 | |
| 20260902091016 | 21 | 0.0 | 0.0 | 0.00 | 0.13 | 0.00 | 96 | 1013.0 | |
| 20260902090516 | 21 | 0.0 | 0.0 | 0.00 | 0.13 | 0.00 | 96 | 1012.9 | |
| 20260902090036 | 21 | 0.0 | 0.0 | 0.00 | 0.13 | 0.00 | 96 | 1012.8 | |
| 20260902085517 | 21 | 0.0 | 1.6 | 0.00 | 0.13 | 0.00 | 95 | 1012.8 | |
| 20260902085018 | 22 | 96 | 0.0 | 3.2 | 0.00 | 0.13 | 0.00 | 95 | 1012.7 |
| 20260902084517 | 22 | 96 | 0.0 | 3.2 | 0.00 | 0.13 | 0.00 | 95 | 1012.8 |
| 20260902084016 | 22 | 46 | 0.0 | 1.6 | 0.00 | 0.13 | 0.00 | 96 | 1012.8 |
| 20260902083516 | 22 | 47 | 0.0 | 3.2 | 0.00 | 0.13 | 0.00 | 96 | 1012.7 |
| 20260902083017 | 22 | 49 | 0.0 | 3.2 | 0.00 | 0.13 | 0.00 | 96 | 1012.7 |
| 20260902082516 | 22 | 48 | 1.6 | 3.2 | 0.00 | 0.13 | 0.00 | 96 | 1012.6 |
| 20260902082016 | 22 | 60 | 0.0 | 3.2 | 0.00 | 0.13 | 0.00 | 95 | 1012.6 |
| 20260902081516 | 22 | 111 | 0.0 | 3.2 | 0.00 | 0.13 | 0.00 | 95 | 1012.5 |
| 20260902081016 | 22 | 115 | 1.6 | 3.2 | 0.00 | 0.13 | 0.00 | 95 | 1012.5 |
| 20260902080536 | 22 | 149 | 0.0 | 6.4 | 0.00 | 0.13 | 0.00 | 95 | 1012.6 |
| 20260902080016 | 22 | 167 | 1.6 | 6.4 | 0.00 | 0.13 | 0.00 | 95 | 1012.6 |
| 20260902075516 | 22 | 176 | 0.0 | 6.4 | 0.00 | 0.13 | 0.00 | 95 | 1012.7 |
| 20260902075017 | 22 | 14 | 1.6 | 4.8 | 0.00 | 0.13 | 0.00 | 95 | 1012.8 |
| 20260902074516 | 22 | 0.0 | 1.6 | 0.00 | 0.13 | 0.00 | 95 | 1012.8 | |
| 20260902074036 | 22 | 318 | 0.0 | 1.6 | 0.00 | 0.13 | 0.00 | 95 | 1012.8 |
| 20260902073516 | 22 | 0.0 | 0.0 | 0.00 | 0.13 | 0.00 | 95 | 1012.9 | |
| 20260902073016 | 22 | 0.0 | 0.0 | 0.00 | 0.13 | 0.00 | 95 | 1012.9 | |
| 20260902072517 | 22 | 0.0 | 0.0 | 0.00 | 0.13 | 0.00 | 95 | 1012.7 | |
| 20260902072016 | 23 | 0.0 | 0.0 | 0.00 | 0.13 | 0.00 | 95 | 1012.7 | |
| 20260902071516 | 23 | 0.0 | 1.6 | 0.00 | 0.13 | 0.00 | 95 | 1012.7 | |
| 20260902071016 | 23 | 318 | 0.0 | 1.6 | 0.00 | 0.13 | 0.00 | 95 | 1012.7 |
| 20260902070517 | 23 | 318 | 0.0 | 1.6 | 0.00 | 0.13 | 0.00 | 95 | 1012.6 |
| 20260902070037 | 23 | 326 | 0.0 | 3.2 | 0.00 | 0.13 | 0.00 | 95 | 1012.6 |
| 20260902065516 | 23 | 325 | 1.6 | 3.2 | 0.00 | 0.13 | 0.00 | 96 | 1012.7 |
| 20260902065016 | 23 | 342 | 1.6 | 4.8 | 0.00 | 0.13 | 0.00 | 95 | 1012.8 |
| 20260902064517 | 23 | 323 | 1.6 | 4.8 | 0.00 | 0.13 | 0.00 | 95 | 1012.8 |
| 20260902064016 | 23 | 306 | 1.6 | 4.8 | 0.00 | 0.13 | 0.00 | 96 | 1012.7 |
| 20260902063516 | 23 | 289 | 1.6 | 6.4 | 0.00 | 0.13 | 0.00 | 96 | 1012.7 |
| 20260902063017 | 23 | 279 | 3.2 | 6.4 | 0.00 | 0.13 | 0.00 | 96 | 1012.6 |
| 20260902062516 | 23 | 273 | 1.6 | 6.4 | 0.00 | 0.13 | 0.00 | 96 | 1012.6 |
| 20260902062016 | 23 | 288 | 1.6 | 4.8 | 0.00 | 0.13 | 0.00 | 96 | 1012.5 |
| 20260902061517 | 23 | 282 | 1.6 | 6.4 | 0.00 | 0.13 | 0.00 | 96 | 1012.5 |
| 20260902061017 | 23 | 281 | 1.6 | 6.4 | 0.00 | 0.13 | 0.00 | 96 | 1012.6 |
| 20260902060516 | 23 | 259 | 0.0 | 3.2 | 0.00 | 0.13 | 0.00 | 96 | 1012.5 |
| 20260902060016 | 23 | 167 | 0.0 | 1.6 | 0.00 | 0.13 | 0.00 | 96 | 1012.5 |
| 20260902055556 | 23 | 173 | 0.0 | 1.6 | 0.00 | 0.13 | 0.00 | 96 | 1012.5 |
| 20260902055016 | 23 | 290 | 0.0 | 1.6 | 0.00 | 0.13 | 0.00 | 96 | 1012.4 |
| 20260902054516 | 23 | 339 | 0.0 | 1.6 | 0.00 | 0.13 | 0.00 | 96 | 1012.5 |
| 20260902054017 | 23 | 0.0 | 0.0 | 0.00 | 0.13 | 0.00 | 96 | 1012.5 | |
| 20260902053516 | 23 | 0.0 | 1.6 | 0.00 | 0.13 | 0.00 | 95 | 1012.5 | |
| 20260902053016 | 23 | 339 | 0.0 | 1.6 | 0.00 | 0.13 | 0.00 | 95 | 1012.5 |
| 20260902052516 | 23 | 339 | 0.0 | 4.8 | 0.00 | 0.13 | 0.00 | 95 | 1012.5 |
| 20260902052016 | 23 | 342 | 1.6 | 4.8 | 0.00 | 0.13 | 0.00 | 95 | 1012.5 |
| 20260902051517 | 23 | 358 | 0.0 | 4.8 | 0.00 | 0.13 | 0.00 | 96 | 1012.5 |
| 20260902051016 | 23 | 102 | 0.0 | 3.2 | 0.00 | 0.13 | 0.00 | 96 | 1012.5 |
| 20260902050516 | 23 | 110 | 0.0 | 4.8 | 0.00 | 0.13 | 0.00 | 96 | 1012.5 |
| 20260902050016 | 23 | 137 | 1.6 | 4.8 | 0.00 | 0.13 | 0.00 | 95 | 1012.5 |
| 20260902045517 | 23 | 139 | 0.0 | 3.2 | 0.03 | 0.13 | 0.00 | 95 | 1012.6 |
| 20260902045016 | 23 | 355 | 1.6 | 3.2 | 0.03 | 0.13 | 0.00 | 95 | 1012.7 |
| 20260902044516 | 22 | 0.0 | 0.0 | 0.03 | 0.13 | 0.00 | 95 | 1012.7 | |
| 20260902044036 | 22 | 0.0 | 3.2 | 0.03 | 0.13 | 0.00 | 95 | 1012.7 | |
| 20260902043536 | 22 | 189 | 0.0 | 3.2 | 0.03 | 0.13 | 0.00 | 95 | 1012.7 |
| 20260902043016 | 22 | 0.0 | 0.0 | 0.03 | 0.13 | 0.00 | 95 | 1012.8 | |
| 20260902042516 | 22 | 0.0 | 1.6 | 0.03 | 0.13 | 0.00 | 95 | 1012.9 | |
| 20260902042016 | 22 | 106 | 0.0 | 3.2 | 0.03 | 0.13 | 0.00 | 95 | 1012.8 |
| 20260902041557 | 22 | 105 | 1.6 | 3.2 | 0.03 | 0.13 | 0.00 | 95 | 1012.8 |
| 20260902041016 | 22 | 105 | 1.6 | 4.8 | 0.03 | 0.13 | 0.00 | 95 | 1012.6 |
| 20260902040516 | 23 | 105 | 1.6 | 4.8 | 0.03 | 0.13 | 0.00 | 95 | 1012.7 |
| 20260902040016 | 23 | 104 | 0.0 | 3.2 | 0.03 | 0.13 | 0.13 | 95 | 1012.7 |
| 20260902035516 | 23 | 0.0 | 0.0 | 0.00 | 0.10 | 0.10 | 95 | 1012.7 | |
| 20260902035018 | 23 | 0.0 | 1.6 | 0.00 | 0.10 | 0.10 | 95 | 1012.7 | |
| 20260902034517 | 23 | 104 | 0.0 | 1.6 | 0.00 | 0.10 | 0.10 | 95 | 1012.8 |
| 20260902034016 | 23 | 104 | 0.0 | 1.6 | 0.00 | 0.10 | 0.10 | 95 | 1012.7 |
| 20260902033516 | 23 | 0.0 | 0.0 | 0.00 | 0.10 | 0.10 | 95 | 1012.6 | |
| 20260902033016 | 23 | 0.0 | 0.0 | 0.00 | 0.10 | 0.10 | 95 | 1012.5 | |
| 20260902032516 | 23 | 0.0 | 0.0 | 0.00 | 0.10 | 0.10 | 95 | 1012.6 | |
| 20260902032016 | 23 | 0.0 | 1.6 | 0.00 | 0.10 | 0.10 | 95 | 1012.6 | |
| 20260902031516 | 23 | 104 | 0.0 | 1.6 | 0.00 | 0.10 | 0.10 | 95 | 1012.6 |
| 20260902031016 | 23 | 104 | 0.0 | 1.6 | 0.00 | 0.10 | 0.10 | 95 | 1012.6 |
| 20260902030516 | 23 | 103 | 0.0 | 1.6 | 0.00 | 0.10 | 0.10 | 94 | 1012.7 |
| 20260902030037 | 23 | 103 | 0.0 | 1.6 | 0.00 | 0.10 | 0.10 | 94 | 1012.6 |
| 20260902025516 | 23 | 103 | 0.0 | 1.6 | 0.00 | 0.10 | 0.10 | 94 | 1012.7 |
| 20260902025016 | 23 | 104 | 0.0 | 1.6 | 0.00 | 0.10 | 0.10 | 95 | 1012.7 |
| 20260902024516 | 23 | 0.0 | 1.6 | 0.00 | 0.10 | 0.10 | 95 | 1012.7 | |
| 20260902024037 | 23 | 104 | 0.0 | 1.6 | 0.00 | 0.10 | 0.10 | 95 | 1012.7 |
| 20260902023516 | 23 | 0.0 | 3.2 | 0.00 | 0.10 | 0.10 | 94 | 1012.7 | |
| 20260902023017 | 23 | 104 | 0.0 | 3.2 | 0.00 | 0.10 | 0.10 | 94 | 1012.7 |
| 20260902022516 | 23 | 127 | 1.6 | 3.2 | 0.00 | 0.10 | 0.10 | 94 | 1012.6 |
| 20260902022016 | 23 | 129 | 0.0 | 3.2 | 0.00 | 0.10 | 0.10 | 94 | 1012.6 |
| 20260902021516 | 23 | 133 | 0.0 | 4.8 | 0.00 | 0.10 | 0.10 | 94 | 1012.6 |
| 20260902021016 | 23 | 119 | 1.6 | 4.8 | 0.00 | 0.10 | 0.10 | 94 | 1012.6 |
| 20260902020516 | 23 | 119 | 1.6 | 4.8 | 0.00 | 0.10 | 0.10 | 94 | 1012.7 |
| 20260902020016 | 24 | 106 | 1.6 | 4.8 | 0.03 | 0.10 | 0.10 | 94 | 1012.6 |
| 20260902015557 | 24 | 30 | 0.0 | 1.6 | 0.03 | 0.10 | 0.10 | 94 | 1012.6 |
| 20260902015017 | 24 | 0.0 | 4.8 | 0.03 | 0.10 | 0.10 | 94 | 1012.6 | |
| 20260902014517 | 24 | 31 | 0.0 | 6.4 | 0.03 | 0.10 | 0.10 | 94 | 1012.6 |
| 20260902014016 | 24 | 26 | 3.2 | 6.4 | 0.03 | 0.10 | 0.10 | 94 | 1012.5 |
| 20260902013536 | 24 | 360 | 1.6 | 4.8 | 0.03 | 0.10 | 0.10 | 94 | 1012.5 |
| 20260902013016 | 24 | 360 | 1.6 | 4.8 | 0.03 | 0.10 | 0.10 | 94 | 1012.4 |
| 20260902012517 | 24 | 348 | 0.0 | 3.2 | 0.03 | 0.10 | 0.10 | 94 | 1012.3 |
| 20260902012016 | 24 | 0.0 | 0.0 | 0.03 | 0.10 | 0.10 | 94 | 1012.1 | |
| 20260902011516 | 24 | 0.0 | 3.2 | 0.03 | 0.10 | 0.10 | 94 | 1011.9 | |
| 20260902011016 | 24 | 182 | 0.0 | 9.7 | 0.03 | 0.10 | 0.10 | 94 | 1011.9 |
| 20260902010516 | 24 | 176 | 3.2 | 9.7 | 0.03 | 0.10 | 0.10 | 94 | 1011.7 |
| 20260902010016 | 24 | 177 | 3.2 | 9.7 | 0.03 | 0.08 | 0.08 | 94 | 1011.7 |
| 20260902005556 | 24 | 186 | 4.8 | 11.3 | 0.03 | 0.08 | 0.08 | 94 | 1011.6 |
| 20260902005016 | 24 | 169 | 6.4 | 11.3 | 0.03 | 0.08 | 0.08 | 94 | 1011.5 |
| 20260902004516 | 25 | 160 | 6.4 | 11.3 | 0.03 | 0.08 | 0.08 | 94 | 1011.5 |
| 20260902004016 | 25 | 162 | 6.4 | 11.3 | 0.03 | 0.08 | 0.08 | 93 | 1011.6 |
| 20260902003516 | 25 | 140 | 1.6 | 4.8 | 0.03 | 0.08 | 0.08 | 93 | 1011.8 |
| 20260902003016 | 25 | 134 | 3.2 | 4.8 | 0.03 | 0.08 | 0.08 | 93 | 1011.9 |
| 20260902002536 | 25 | 132 | 0.0 | 4.8 | 0.03 | 0.08 | 0.08 | 93 | 1012.2 |
| 20260902002017 | 25 | 0.0 | 1.6 | 0.03 | 0.08 | 0.08 | 93 | 1012.4 | |
| 20260902001516 | 25 | 18 | 0.0 | 1.6 | 0.05 | 0.08 | 0.08 | 93 | 1012.5 |
| 20260902001016 | 25 | 18 | 0.0 | 4.8 | 0.05 | 0.08 | 0.08 | 93 | 1012.5 |
| 20260902000536 | 25 | 17 | 0.0 | 6.4 | 0.05 | 0.08 | 0.08 | 93 | 1012.4 |
| 20260902000016 | 25 | 27 | 3.2 | 6.4 | 0.03 | 0.05 | 0.05 | 93 | 1012.3 |
| 20260901235516 | 25 | 88 | 3.2 | 12.9 | 0.03 | 0.05 | 0.05 | 93 | 1012.3 |
| 20260901235016 | 25 | 121 | 4.8 | 14.5 | 0.03 | 0.05 | 0.05 | 92 | 1012.3 |
| 20260901234536 | 25 | 119 | 9.7 | 14.5 | 0.03 | 0.05 | 0.05 | 92 | 1012.1 |
| 20260901234016 | 25 | 105 | 1.6 | 6.4 | 0.03 | 0.05 | 0.05 | 92 | 1012.8 |
| 20260901233517 | 25 | 0.0 | 4.8 | 0.03 | 0.05 | 0.05 | 92 | 1013.0 | |
| 20260901233016 | 25 | 331 | 1.6 | 6.4 | 0.03 | 0.05 | 0.05 | 92 | 1013.1 |
| 20260901232517 | 25 | 355 | 3.2 | 6.4 | 0.03 | 0.05 | 0.05 | 92 | 1013.1 |
| 20260901232016 | 25 | 351 | 0.0 | 4.8 | 0.03 | 0.05 | 0.05 | 91 | 1013.0 |
| 20260901231516 | 25 | 0.0 | 3.2 | 0.00 | 0.03 | 0.03 | 92 | 1012.9 | |
| 20260901231016 | 25 | 150 | 0.0 | 4.8 | 0.00 | 0.03 | 0.03 | 92 | 1012.7 |